FENGYUN 1C DEB, 41008

Orbit data source: Space-Track

FENGYUN 1C DEB, 41008 is space debris in LEO originally from a launch on Mon, 10 May 1999 UTC launched from the Taiyaun Space Center, China (TSC). Fengyun 1C debris stems from the Chinese weather satellite Fengyun-1C, which was intentionally destroyed by a Chinese anti-satellite missile in 2007. This event dramatically increased the amount of space debris, with thousands of trackable fragments posing hazards to satellites and human spaceflight. The Fengyun 1C debris cloud has become a focal point in discussions about space sustainability and the need for international regulations to prevent the creation of new debris.

Loading next visibility...
FENGYUN 1C DEB details
Identifier
41008, 1999-025EXN
Orbit
LEO
Last TLE update3 days ago
Origin
Flag of CNCASC (CN / PRC)
ManufacturerUnknown
MissionSpacecraft
Bus & MotorUnknown
MassUnknown
Launch date (UTC)
1999-05-10 (26 years ago)
Launch vehicleUnknown
Launch site
Taiyaun Space Center, China (TSC)
Object type
Payload
Rocket body
Debris
Shape & HBRUnknown
Radar Cross SectionSmall (<0.1 m²)

Expand to show TLE details & history

TLE from 3 days ago
0 FENGYUN 1C DEB
1 41008U 99025EXN 24336.20745329  .00001320  00000-0  77920-3 0  9992
2 41008  99.2675 139.4936 0507997  45.1598 318.9674 13.59570641513252
Epoch: 2024-12-01T04:58Z
Definitive object data (Epoch: 2024-12-01T04:58:43.964Z)
Latitude0.00004°
Longitude-5.73857°
Altitude764.598 km
Speed7.609 km/s
True Right ascension09h 17m 58s
True Declination0° 00' 00"
Sunlit
Object was in daylight at TLE epoch
Visualization TLE readout
Latitude-48.99864°
Longitude166.5481°
Altitude1,422.65 km
Speed6.969 km/s
Apparent Right ascension20h 22m 27s
Apparent Declination-44° 54' 60"
Sunlit
Object is in daylight
Visualization observer readout
Local Sidereal Time07:56:38
Azimuth221.47° SW
Elevation-83.098°
Doppler factor1
Orbital elements
Apogee altitude1,411.069 km
Perigee altitude657.949 km
Semi-major axis7,412.646 km
Eccentricity0.0507997
Inclination99.2675°
RAAN139.4936°
Arg. of periapsis45.1598°
True anomaly314.95728°
Mean anomaly318.9674°
Eccentric anomaly316.98169°
Mean motion3.40082 °/min
BSTAR0.0007792
Orbital period105.86 mins
Loading maneuver chart data...
Loading historical data...
Loading historical data...
Loading historical data...
Loading historical data...
Loading historical data...
Loading historical data...
Loading historical data...

FENGYUN 1C DEB Visibility forecast

Observer location: undefined°, undefined

Span
Click to sort rows by Start time (UTC) header in descending order
Start Az.
Max El. time (UTC)
Max El. Az.
Max El.
End time (UTC)
End Az.
8 mins2024-12-04 10:48:16.012Z154.17° SSE2024-12-04 10:52:16.012Z71.271° E42.59°2024-12-04 10:56:16.012Z352.13° N
11 mins2024-12-04 23:37:16.012Z27.551° NE2024-12-04 23:42:16.012Z121.324° SE40.553°2024-12-04 23:48:16.012Z180.322° SSW
9 mins2024-12-05 01:22:16.012Z338.455° N2024-12-05 01:26:16.012Z290.76° WNW22.641°2024-12-05 01:31:16.012Z245.175° WSW
|